Theta_e
294 293 293 296 295 295 295 294 293 292 292 291 287 288 293 294 288 286 292 293 291 293 295 296 296 295 294 296 297 299 301 301 301 300 299 299 300 300 300 300 300 300 299 299 299 298 298 298 297 297 297 297 297 297 296 296 296 295 296 296 296 296 296 295 295 295 295 295 295 295 295 294 294 294 294 293 293 293 293 294 294 294 294 294 294 294 294
294 294 294 296 295 294 294 295 295 294 293 291 291 291 293 293 292 294 294 297 295 296 297 297 298 298 297 298 299 300 300 299 299 299 298 299 299 299 299 300 300 300 300 299 298 298 297 297 297 297 297 296 296 296 295 295 295 294 295 295 295 295 294 294 294 294 294 294 294 294 293 293 292 292 292 292 292 292 292 293 293 293 293 293 293 293 293
290 292 291 292 294 294 292 295 296 294 293 292 293 293 294 293 293 295 294 296 295 299 300 300 301 299 300 299 298 298 300 300 299 299 298 299 299 300 300 301 300 300 299 299 298 297 297 297 296 296 296 296 296 295 295 295 294 294 294 294 294 293 293 293 293 293 293 292 292 292 292 292 291 291 291 291 291 291 291 291 291 292 292 292 292 292 292
286 289 289 290 291 289 289 291 293 293 292 289 291 290 294 292 290 292 292 290 292 297 300 301 297 297 297 297 298 298 299 300 299 298 299 299 300 300 300 301 300 299 298 297 296 296 296 295 295 295 295 295 295 294 294 293 293 293 294 294 293 293 292 292 292 291 291 291 291 291 291 290 290 290 290 289 290 290 290 290 290 290 290 291 291 291 292
285 285 288 287 287 286 284 285 291 294 294 293 294 295 295 295 295 290 288 289 296 298 298 297 295 295 296 297 298 298 299 300 299 299 299 300 301 301 301 300 299 298 298 297 297 296 295 295 295 294 294 294 294 293 293 293 292 292 293 293 293 292 291 291 291 291 290 290 290 290 290 289 289 289 287 288 288 287 287 289 289 289 290 289 290 290 291
285 281 285 287 284 278 280 292 296 296 294 293 292 292 293 295 296 294 296 297 299 298 297 296 296 296 296 297 299 301 300 300 300 300 300 301 302 301 301 300 299 298 298 297 296 296 296 295 294 294 293 293 293 293 292 292 292 292 292 292 291 291 291 290 290 289 289 289 288 288 288 288 288 288 287 287 287 288 287 288 288 288 288 288 288 289 289
284 282 284 282 276 279 292 297 299 298 297 297 295 296 296 296 297 297 296 297 298 298 299 299 299 299 299 300 300 300 301 303 301 300 300 301 301 301 300 299 298 298 297 296 295 294 294 293 293 293 292 292 292 291 292 291 291 291 291 291 290 289 289 289 288 288 288 287 287 287 287 287 286 286 286 286 286 286 287 287 286 286 287 286 287 287 287
286 282 283 276 278 288 294 294 293 297 297 297 295 293 296 297 297 297 296 297 298 300 299 300 302 301 299 299 300 301 302 303 303 301 301 302 301 300 299 298 298 297 296 295 294 293 293 292 292 292 292 292 291 291 291 290 290 290 290 290 289 288 288 288 288 287 287 286 286 286 286 285 285 285 285 285 285 286 286 286 286 286 286 286 286 286 286
282 283 283 282 289 287 288 292 290 292 291 291 291 287 291 296 297 297 297 297 298 299 299 299 296 296 296 296 297 298 299 302 302 301 301 301 300 300 299 298 297 297 296 295 294 292 292 292 291 290 290 290 290 290 289 289 289 289 289 288 287 287 287 287 287 286 286 285 285 284 284 284 284 284 284 284 285 286 285 285 285 285 285 285 286 286 286
288 284 282 282 282 279 286 294 297 297 299 298 298 292 288 297 298 299 297 296 297 298 296 295 294 296 295 292 294 299 297 299 300 299 301 301 300 298 297 296 295 295 294 292 292 291 290 289 289 289 289 289 290 288 288 288 288 287 287 286 286 286 286 286 285 286 285 284 283 283 283 282 282 282 283 283 284 285 284 284 284 284 285 285 286 286 285
285 284 282 281 279 282 292 293 294 297 299 299 298 290 286 295 297 299 298 297 297 297 295 294 294 293 289 291 296 300 296 296 297 296 297 296 296 295 295 294 292 292 291 291 290 289 288 287 288 288 288 288 288 287 287 287 287 286 285 284 284 284 284 285 285 284 284 283 282 281 280 281 281 280 281 282 283 284 284 283 283 284 285 285 284 285 285
286 284 282 281 284 285 292 294 295 296 299 300 293 281 282 294 298 299 298 297 297 298 297 294 293 292 290 292 297 299 296 295 296 296 294 294 293 293 293 292 292 290 289 288 288 287 286 286 286 286 287 287 286 286 286 286 284 283 282 283 283 283 283 283 283 282 281 281 280 279 279 279 280 280 281 282 282 282 282 282 283 284 284 284 283 283 284
286 286 284 286 287 292 292 294 293 295 299 295 285 280 289 297 297 297 298 297 298 298 296 294 291 294 298 297 294 294 294 294 293 294 294 293 293 292 291 290 288 288 288 288 287 286 286 285 285 285 286 286 285 285 285 283 282 281 281 282 282 281 281 281 280 280 279 279 278 278 279 278 279 279 280 280 281 281 281 282 282 282 281 282 282 283 284
284 286 284 284 288 291 292 293 295 297 293 284 283 292 290 296 294 295 296 296 297 297 296 296 296 297 293 294 294 293 293 293 292 292 291 290 290 290 289 288 288 287 286 285 284 283 284 283 283 283 284 284 283 284 282 280 279 279 280 280 280 279 279 278 278 278 278 278 278 277 278 278 278 278 279 280 280 280 281 281 280 280 281 282 282 283 283
287 287 284 283 279 289 294 293 292 293 288 289 295 291 291 290 293 295 293 297 298 297 296 297 297 293 293 292 292 292 292 291 290 290 289 288 287 287 286 286 287 286 284 283 282 282 281 280 280 280 282 281 281 281 278 277 278 278 278 278 278 278 277 277 277 277 277 277 276 277 277 278 277 277 278 279 279 280 280 280 280 280 280 281 281 282 282
283 284 282 283 290 291 296 296 290 291 296 296 295 299 293 292 294 294 296 295 299 299 297 296 294 294 292 292 291 291 290 290 290 289 288 287 287 286 286 286 286 285 283 282 281 280 279 278 277 277 278 278 279 277 275 276 277 277 277 277 277 276 276 276 276 276 276 276 276 276 277 277 277 277 277 278 279 280 280 280 280 280 281 281 281 281 281
288 286 289 291 292 293 298 298 297 297 298 295 296 297 298 296 296 294 294 297 297 297 299 297 294 291 292 291 291 289 289 289 289 288 287 287 285 284 283 282 284 283 282 280 279 278 277 276 276 274 275 275 275 274 274 275 275 275 276 276 275 274 274 274 274 274 274 275 275 276 276 276 276 277 277 277 277 279 279 279 279 279 280 280 280 281 281
293 291 292 295 291 293 295 295 295 294 297 295 294 296 298 299 297 295 296 298 297 295 296 294 292 292 291 290 290 290 289 289 288 287 286 284 283 282 280 280 281 282 281 280 278 276 275 274 273 273 273 273 272 272 274 274 275 275 274 273 273 273 273 273 273 273 273 274 275 275 275 276 276 276 276 276 277 277 278 278 279 279 279 279 280 279 280
290 286 294 292 292 294 294 296 294 293 290 293 293 295 297 297 295 294 294 294 295 295 295 295 293 292 291 290 290 289 288 287 287 285 284 282 281 280 279 279 279 279 278 277 277 275 273 273 272 271 271 272 272 273 273 275 275 274 272 272 272 272 272 272 272 273 272 273 273 274 274 275 275 275 276 276 276 276 277 277 278 278 278 278 278 278 279
289 289 292 291 291 292 292 293 295 295 297 294 292 293 291 290 291 291 292 291 291 292 292 294 292 291 291 290 289 288 287 286 285 284 283 281 280 279 278 278 278 278 277 275 275 274 272 271 270 270 270 271 272 273 273 273 272 271 271 271 271 271 271 271 272 272 272 273 273 273 273 273 273 274 275 275 275 275 276 276 276 276 276 276 277 277 277
290 293 292 290 291 291 291 291 291 294 296 295 291 290 289 289 290 290 290 292 292 292 293 293 292 291 291 290 289 288 287 286 284 283 281 279 278 276 275 276 276 275 274 273 272 272 270 270 269 269 269 271 272 271 270 270 270 269 270 270 270 270 271 271 271 272 272 271 271 271 272 272 273 274 274 274 274 275 276 277 277 276 276 276 277 278 278
287 288 289 288 288 289 292 290 291 291 292 292 291 289 289 289 289 289 289 288 289 291 292 293 292 290 290 290 289 288 287 286 284 282 279 278 276 275 274 273 272 271 271 270 270 269 269 268 268 268 269 271 270 269 269 269 269 269 269 269 269 270 270 271 271 271 270 270 270 271 271 271 271 272 275 276 276 275 275 277 279 280 280 277 277 278 277
286 289 290 293 293 292 289 288 289 292 292 291 290 290 290 290 291 290 289 288 288 289 290 292 292 291 290 289 289 287 286 284 282 280 278 276 274 273 272 270 270 269 268 267 267 267 267 267 267 268 269 269 267 267 267 268 268 268 268 268 269 269 270 269 270 269 269 269 270 270 270 270 270 271 271 273 276 277 277 277 278 278 279 280 280 281 279
288 289 290 291 290 289 289 287 288 289 291 291 290 291 291 291 290 290 289 290 289 289 289 288 290 290 289 288 288 286 283 281 279 278 277 276 274 272 272 271 269 267 267 267 267 266 267 266 266 268 267 266 266 266 266 266 267 267 267 267 267 268 267 267 267 268 268 268 268 269 269 270 270 270 269 269 270 274 276 276 276 277 278 278 279 279 280
288 289 289 289 289 288 287 286 287 288 289 289 290 290 290 290 289 290 289 289 290 289 288 287 288 289 288 288 287 284 280 279 277 275 274 273 272 271 269 268 267 267 267 267 266 266 266 266 267 266 264 264 265 264 265 265 266 265 265 265 264 264 264 265 267 267 267 267 267 268 268 268 268 268 268 268 267 268 270 274 275 275 276 277 278 279 279
291 288 286 286 287 287 287 288 288 287 288 288 288 289 287 286 286 288 287 286 288 287 287 287 286 287 287 286 284 280 277 275 273 273 272 270 269 268 266 266 267 267 266 266 265 265 265 266 264 263 262 263 264 264 264 265 265 263 262 262 262 263 264 264 264 265 266 266 266 267 267 267 267 267 267 267 267 267 267 268 269 272 274 276 276 277 278
288 288 287 286 287 288 288 287 287 287 287 287 287 284 282 282 280 281 280 279 279 280 283 284 284 283 284 283 279 278 275 272 272 272 271 270 268 268 266 266 266 265 265 264 264 265 265 264 262 262 261 262 263 263 263 262 261 261 260 261 261 263 264 264 264 264 265 265 265 265 266 266 266 266 266 266 267 267 267 267 267 268 268 270 273 275 274
287 287 288 285 285 287 287 285 285 285 285 285 285 283 280 280 281 280 278 278 278 276 276 277 278 279 278 277 276 273 271 270 271 271 269 269 268 266 264 264 264 263 263 263 264 264 262 262 261 260 260 262 263 262 261 260 259 259 260 261 261 262 263 263 263 264 264 264 265 264 264 264 265 265 265 266 266 266 267 267 267 267 268 269 270 272 274
287 286 286 287 286 283 282 283 284 284 282 281 281 280 279 279 279 279 279 280 277 275 274 273 274 276 277 274 273 272 271 271 270 269 269 267 265 264 264 263 263 263 263 263 263 262 261 261 260 260 261 263 261 261 259 259 259 259 260 260 261 261 262 263 263 263 263 263 263 264 265 265 265 265 265 266 266 266 266 266 266 267 267 267 268 268 270
286 282 283 284 282 282 283 283 285 284 282 280 279 278 278 279 280 280 281 277 274 274 275 272 271 272 272 271 271 271 271 270 270 268 266 264 264 263 263 262 262 262 261 261 261 261 260 260 260 259 260 261 259 258 258 258 258 258 258 259 260 261 261 262 262 262 262 263 263 264 264 264 265 265 264 264 265 265 265 265 265 265 265 265 267 266 266
285 283 282 283 281 281 281 282 283 281 280 278 279 278 277 277 279 280 280 278 274 274 272 269 270 270 269 270 270 270 268 267 266 265 264 263 262 262 262 262 261 262 262 261 260 260 259 259 260 260 261 259 258 258 257 257 259 259 259 261 261 262 262 262 263 262 262 263 263 263 263 264 264 264 264 264 264 264 264 264 264 264 265 265 265 266 267
282 279 278 280 280 279 279 279 280 281 281 279 276 276 277 277 277 278 280 278 276 274 271 268 268 268 268 267 265 265 265 264 263 262 262 262 262 261 261 261 260 260 261 261 260 259 259 259 259 259 256 257 258 257 257 257 258 259 260 261 261 261 262 262 262 263 263 263 263 263 263 263 263 263 263 263 263 263 263 264 263 264 264 265 265 266 267
278 277 278 278 276 276 276 278 279 279 280 278 278 279 280 280 280 281 281 280 276 272 270 268 268 267 265 263 262 262 261 261 260 260 260 260 260 259 259 259 258 258 259 259 259 260 259 259 259 258 255 256 255 256 256 256 258 259 260 261 260 261 261 262 262 262 262 263 263 263 263 263 263 263 263 263 264 264 264 264 264 264 264 265 265 266 267
282 283 284 285 284 283 282 282 281 279 280 281 280 280 279 279 279 279 280 277 275 272 270 269 268 265 262 261 261 260 260 260 260 260 259 259 258 258 258 258 258 257 258 258 259 259 260 260 259 257 258 258 257 258 258 258 258 259 259 259 260 260 261 262 262 262 262 262 263 263 263 263 263 263 263 263 264 264 264 264 264 264 264 264 265 266 267
287 287 287 287 287 287 286 285 285 284 282 281 280 278 278 278 278 278 278 277 274 274 272 269 265 262 260 260 259 259 260 263 265 261 259 258 258 257 257 257 256 256 256 257 258 259 260 257 256 255 255 256 257 258 258 258 256 258 257 259 260 260 261 262 262 262 262 262 263 262 262 263 263 263 263 263 263 263 263 263 263 263 263 263 264 265 266
284 284 285 285 285 285 285 285 285 285 285 283 282 281 279 277 277 277 276 276 277 274 269 266 262 260 259 259 259 259 259 263 263 260 258 258 257 257 257 255 255 256 256 256 258 257 255 255 257 258 258 258 258 256 256 256 256 257 259 260 260 261 262 262 262 262 262 262 262 262 262 263 263 263 263 263 263 263 262 262 262 263 263 263 263 264 264
283 283 284 284 284 284 284 285 285 285 284 284 283 282 280 278 276 277 277 275 273 270 267 263 260 259 258 259 260 260 260 262 262 260 259 258 257 256 256 256 256 256 257 256 258 257 256 257 258 258 259 259 258 256 256 258 258 259 260 260 260 261 261 261 261 261 261 262 262 262 262 262 262 262 262 262 262 262 262 262 262 262 262 263 263 263 263
281 280 281 282 283 283 283 284 284 284 283 282 281 279 280 280 278 275 275 273 271 269 265 263 262 262 261 260 259 259 260 260 259 258 257 256 256 255 256 256 256 257 258 260 259 257 257 258 258 258 257 258 258 256 257 258 259 259 260 261 260 260 260 260 260 261 261 261 262 261 261 261 261 261 261 262 261 261 262 262 262 262 262 262 262 262 262
279 279 278 278 278 278 279 280 280 277 276 278 280 281 278 276 274 271 271 270 268 266 264 263 262 260 259 259 258 258 258 258 257 256 255 255 256 255 256 258 259 260 260 258 257 258 259 258 258 257 258 257 257 256 257 258 259 259 260 260 259 259 260 260 260 260 261 261 261 261 260 261 261 261 261 261 261 261 262 261 261 261 261 261 261 261 261
275 275 274 273 274 275 275 275 276 276 276 274 274 276 276 270 268 269 269 267 264 263 263 261 260 259 258 259 259 258 257 256 255 255 255 255 255 256 257 257 256 254 256 257 258 258 258 258 257 257 258 257 256 257 258 259 259 259 259 259 259 260 260 260 260 260 260 260 260 261 260 260 260 260 260 261 261 261 260 261 260 260 260 260 260 260 261
270 271 271 270 271 271 271 272 273 273 270 268 269 270 268 268 267 266 266 266 263 261 262 261 260 260 260 260 259 258 256 254 255 254 255 254 254 256 258 258 258 255 255 256 257 257 257 257 257 257 258 258 257 259 258 259 259 259 259 259 259 259 259 260 260 260 260 260 260 259 259 259 259 259 260 260 260 260 260 260 260 260 260 260 260 260 260
267 266 266 267 268 268 268 268 266 267 268 265 263 261 262 263 266 267 266 263 260 260 260 260 260 262 261 259 258 256 255 254 254 254 254 255 256 258 260 260 258 256 256 256 257 257 257 256 257 257 257 257 258 258 258 258 258 258 258 258 258 258 259 259 259 259 260 260 259 259 259 259 259 259 259 259 259 259 259 259 259 259 259 259 259 259 259
264 264 264 265 265 265 263 264 264 264 264 263 259 259 260 261 263 262 260 260 259 258 258 258 259 258 258 258 256 254 254 254 253 253 253 255 255 253 257 259 257 256 256 256 256 257 257 257 258 257 258 258 258 258 258 258 258 257 257 257 258 258 258 258 259 259 259 258 258 258 258 258 258 258 258 258 258 258 258 258 258 258 259 259 259 259 259
262 261 262 262 262 262 260 261 261 260 260 262 258 258 258 259 260 260 259 259 258 258 258 258 258 257 257 256 256 255 254 253 252 253 253 254 255 255 253 257 257 256 256 257 257 257 258 258 258 257 257 257 257 257 257 257 257 257 256 256 256 257 257 257 258 258 258 258 258 258 258 258 258 258 258 258 258 258 258 258 258 258 258 258 258 258 259
260 259 259 259 259 258 259 260 260 260 260 257 256 257 257 257 257 257 258 258 257 257 258 257 257 257 256 256 256 257 255 255 254 255 255 256 256 257 256 255 256 256 255 256 257 257 257 257 257 256 256 257 257 257 256 257 257 256 255 255 255 256 256 256 257 257 257 257 257 257 258 258 258 257 257 257 258 257 257 257 257 257 258 258 258 258 258
257 256 255 256 257 257 257 258 257 255 255 256 256 256 256 256 256 256 256 257 257 257 257 257 256 256 256 257 258 257 256 256 257 258 257 258 259 259 256 255 256 256 255 255 256 257 257 257 256 256 256 256 256 256 255 256 256 255 254 254 254 255 255 256 256 256 257 256 257 257 257 257 257 257 257 257 257 257 257 258 258 257 257 257 257 257 258
255 255 254 254 254 253 253 254 255 256 256 256 256 257 255 255 256 256 256 256 257 257 257 257 257 257 257 257 256 255 255 255 256 256 255 255 255 256 256 255 255 254 254 255 256 256 256 256 255 255 255 255 255 255 255 255 254 254 254 254 254 255 255 255 256 255 256 256 256 257 257 257 256 256 257 257 256 257 257 257 256 257 257 257 257 257 257
254 254 254 253 252 252 253 253 253 255 255 256 258 256 254 254 254 255 255 255 255 256 256 256 255 255 256 256 256 257 258 257 255 256 256 254 255 255 255 255 254 253 254 254 254 255 255 255 254 254 255 255 254 255 255 254 254 254 254 254 254 254 254 255 255 255 255 256 255 255 255 255 256 256 256 256 256 256 256 256 256 256 256 256 256 256 256
253 252 252 252 252 252 253 254 254 255 256 257 255 254 254 253 253 253 254 254 254 254 254 253 253 253 253 253 254 255 253 252 255 257 256 255 255 254 254 253 252 252 253 254 254 254 254 254 254 254 254 253 254 254 254 254 254 254 254 254 254 254 254 255 255 255 255 254 255 255 255 255 255 255 255 255 255 255 255 255 255 255 255 255 255 255 256
253 253 254 254 254 254 254 256 256 257 258 256 255 254 253 254 253 253 254 254 255 254 254 253 253 253 253 254 253 252 252 252 252 253 253 253 253 253 253 252 252 252 253 253 253 254 254 253 253 252 252 253 253 253 253 253 253 253 253 253 254 254 254 254 255 255 254 254 254 254 254 254 254 254 254 254 254 254 254 254 254 255 255 255 254 254 254
253 254 255 255 255 255 254 255 255 256 256 256 255 254 254 254 255 254 254 254 254 253 254 253 253 252 252 252 252 252 252 252 252 252 253 252 252 252 252 252 252 252 252 253 253 253 253 252 252 252 252 252 252 252 252 252 252 253 253 253 252 253 253 253 253 253 253 254 254 254 254 254 253 253 253 253 253 253 253 253 253 253 253 253 253 253 253
250 251 252 252 252 252 253 253 254 255 254 254 254 254 255 255 254 253 254 254 254 254 254 253 252 253 253 252 252 252 252 251 252 252 252 252 252 252 252 252 252 252 252 252 252 251 251 251 251 251 252 252 252 252 253 253 252 252 252 253 253 253 253 253 253 253 253 253 253 253 253 253 253 252 252 252 252 252 252 252 252 252 252 252 251 251 251
Wind_Speed
10 5 3 8 10 12 10 12 10 12 14 13 12 13 15 9 8 12 14 13 14 16 10 9 11 11 12 15 16 17 16 11 9 10 11 12 11 11 10 10 10 10 10 9 9 8 6 6 6 6 5 5 5 5 4 4 4 5 4 4 3 3 3 4 4 4 4 3 3 4 4 3 4 4 4 3 3 3 3 4 4 4 5 5 6 6 5
9 4 3 2 8 7 8 9 11 13 13 14 16 16 16 17 13 13 14 4 14 12 9 10 10 10 10 9 7 6 9 11 11 11 11 12 12 12 12 12 11 10 10 9 9 8 7 7 7 6 5 5 4 5 5 5 5 4 3 3 2 2 3 3 4 4 4 4 3 3 4 4 5 5 4 5 5 4 5 4 4 5 5 5 6 6 6
7 3 3 2 2 4 6 4 8 12 13 15 14 14 16 17 17 14 12 7 9 9 7 6 4 7 5 7 11 13 13 11 12 13 14 14 13 13 12 12 11 11 10 9 8 8 7 7 6 5 5 5 5 6 5 5 4 3 2 1 2 2 3 3 4 4 4 4 3 4 4 4 4 4 5 5 5 6 5 5 5 5 5 6 5 6 6
4 2 4 4 3 3 1 2 6 11 11 13 12 13 13 14 14 17 14 14 12 11 8 3 6 7 9 10 11 12 12 12 13 15 14 13 13 14 14 13 11 10 9 9 8 8 7 6 6 5 5 5 5 5 4 4 3 1 1 2 2 2 3 3 4 4 4 4 4 3 4 4 5 4 5 5 4 5 6 5 5 6 6 6 6 6 6
4 3 1 5 4 1 4 8 12 16 17 17 15 14 14 14 16 16 11 16 16 3 10 7 5 7 9 10 11 12 13 13 14 15 15 15 13 14 13 12 11 10 10 9 9 8 7 6 5 5 5 5 5 4 3 3 1 1 1 1 2 2 3 3 4 3 3 4 3 3 4 4 4 4 3 4 3 4 5 6 7 6 7 7 7 7 7
2 3 3 4 4 9 11 11 17 16 17 18 13 12 16 17 17 12 14 12 4 9 9 11 10 10 11 12 13 13 14 14 12 12 12 12 12 11 10 10 10 10 8 8 8 7 7 6 6 6 5 5 5 3 3 1 1 2 2 1 2 2 3 4 4 4 3 4 4 4 4 5 5 6 4 5 5 6 4 5 6 7 6 9 8 7 8
2 2 3 4 11 14 9 2 4 16 16 10 13 14 17 16 15 15 16 13 13 9 9 11 10 9 8 7 8 10 10 10 11 15 15 15 13 12 12 11 10 10 10 10 9 8 7 7 6 5 5 4 4 3 2 2 2 2 2 2 3 3 3 3 4 3 4 4 4 5 5 4 3 4 4 4 5 4 4 4 5 7 8 8 9 7 9
4 3 6 11 9 4 1 2 2 3 6 11 10 16 15 15 16 16 17 17 15 11 8 4 2 3 3 2 3 6 6 6 8 12 12 9 11 11 10 12 12 11 11 11 10 9 7 7 5 4 5 4 3 3 3 3 3 2 2 2 3 3 2 3 3 3 3 4 5 5 5 4 4 4 4 4 6 6 4 5 5 6 6 6 8 9 8
5 5 10 10 4 5 2 5 6 11 11 11 14 13 14 13 11 13 14 15 15 10 6 5 5 4 2 1 7 8 7 5 7 14 12 9 10 9 8 10 11 10 10 10 10 9 8 6 6 5 5 3 4 5 4 3 3 3 3 3 3 2 2 3 3 3 3 3 4 3 4 4 5 5 6 7 5 4 6 6 6 7 8 8 8 8 10
4 5 5 4 5 12 11 8 4 8 4 6 8 8 14 11 15 17 17 17 15 13 6 6 6 3 1 7 12 8 9 9 7 2 5 9 9 10 11 11 11 11 10 10 9 8 8 7 5 5 4 4 5 5 4 3 4 3 3 3 2 2 2 2 3 2 3 3 3 3 4 5 5 5 5 5 4 4 6 8 9 8 8 9 9 7 8
5 6 7 7 9 11 2 4 8 9 7 9 6 4 11 13 14 15 15 16 17 13 8 8 8 4 6 10 10 8 13 9 6 9 7 8 9 9 10 13 13 12 11 11 10 9 8 8 5 4 4 5 6 5 4 4 4 4 3 2 2 3 2 3 2 3 3 2 3 3 4 4 5 7 7 6 5 5 6 7 8 7 7 9 11 11 9
6 7 9 10 4 8 4 6 4 10 8 11 8 5 10 12 7 12 15 17 16 10 11 12 11 11 11 14 5 5 8 8 7 9 11 11 12 11 11 10 11 12 12 11 10 9 8 7 5 4 5 5 3 5 5 4 4 4 3 3 2 2 3 3 3 3 3 4 5 6 7 7 7 6 6 6 7 7 8 6 7 8 8 8 12 13 12
10 10 7 5 6 1 4 6 5 7 9 13 10 12 2 3 12 15 12 11 13 13 11 12 9 14 6 2 6 8 11 11 9 9 9 10 11 13 12 12 12 11 9 9 9 8 7 5 4 3 5 6 5 5 5 5 4 3 2 3 3 3 4 4 4 5 6 6 7 6 6 6 6 6 6 7 8 7 9 7 7 9 10 10 11 13 12
12 10 10 9 6 2 7 4 8 10 9 8 11 3 3 1 2 2 3 8 7 4 8 9 11 3 6 7 7 9 8 9 10 10 11 12 11 10 11 12 12 10 10 10 10 8 6 5 3 1 3 4 5 5 5 5 4 3 3 4 4 5 5 6 6 7 7 7 7 6 6 6 7 7 5 6 6 7 6 7 9 11 10 9 10 12 12
3 3 8 6 11 3 9 13 4 3 4 2 3 4 2 3 1 1 0 0 2 4 6 9 5 7 5 7 7 8 9 10 11 12 12 12 13 13 13 11 9 10 10 10 9 8 6 4 3 3 3 5 5 5 5 5 4 4 5 5 6 5 6 6 7 7 7 8 8 6 6 6 7 9 7 7 8 7 7 8 9 11 11 10 10 12 12
7 10 10 7 1 8 10 13 9 8 4 2 1 1 3 0 1 2 0 2 1 2 5 7 6 6 8 6 9 9 8 9 10 10 10 10 11 10 8 9 10 9 10 9 9 7 6 5 4 4 4 5 5 6 6 4 4 4 5 6 5 6 6 7 7 7 7 7 7 6 6 7 7 7 8 8 8 6 6 7 8 9 8 9 9 11 13
7 5 8 2 1 6 4 5 6 8 7 3 1 5 4 2 1 2 1 2 2 2 2 3 8 6 5 8 8 10 10 10 11 12 11 11 10 9 9 8 8 7 8 10 9 8 6 6 5 5 4 5 6 7 4 4 4 5 5 5 6 6 7 7 6 6 6 7 7 5 5 6 7 7 7 7 8 7 6 6 7 8 9 8 9 10 11
0 3 2 5 1 1 4 1 3 4 2 1 1 1 1 1 2 4 2 1 1 3 4 7 4 5 7 9 8 8 9 10 9 9 10 9 9 9 8 8 6 7 8 8 8 8 7 6 5 5 5 5 6 5 4 4 4 4 5 6 6 6 6 5 5 6 6 6 4 4 6 5 5 6 7 8 7 7 6 6 6 8 8 9 9 10 11
7 9 11 8 4 3 4 3 2 1 1 2 3 2 2 2 4 2 2 2 1 2 3 7 7 7 8 9 8 8 9 9 10 9 9 9 9 9 9 8 8 7 8 7 8 8 7 5 5 5 5 6 5 4 4 4 4 5 5 5 5 5 5 5 5 4 5 4 5 5 4 4 5 5 5 6 7 8 6 7 8 8 8 9 10 9 10
10 2 3 5 4 2 2 0 1 3 3 3 2 2 4 3 3 2 1 2 2 3 5 6 8 8 9 11 10 9 8 9 9 9 9 10 9 7 7 7 5 6 6 7 7 7 6 5 4 4 5 5 4 4 4 5 5 5 5 5 4 4 5 5 4 4 5 7 7 6 5 5 6 6 5 6 6 8 7 6 8 9 8 10 10 10 11
4 7 4 3 2 4 3 2 4 6 5 1 2 3 3 2 0 1 2 2 2 6 7 7 9 10 10 9 11 11 9 9 9 9 8 8 8 9 8 6 5 6 7 7 7 7 6 5 4 4 4 4 5 6 5 5 5 5 5 5 4 4 4 4 4 4 4 4 5 7 7 7 6 6 7 7 9 10 10 7 8 9 10 12 12 11 11
6 6 3 5 3 4 2 2 4 6 5 3 1 2 2 3 3 2 2 0 2 1 2 2 8 11 10 8 9 11 9 10 10 10 9 9 9 8 7 6 7 7 7 8 8 7 5 5 5 4 5 5 5 5 4 5 5 6 5 4 4 3 3 3 3 4 4 5 5 5 6 7 9 10 10 13 12 11 13 13 16 19 18 15 14 12 14
4 5 3 3 2 4 5 3 3 3 2 1 4 6 4 3 3 3 4 3 2 3 2 1 8 10 9 10 9 9 8 8 7 8 10 10 8 8 7 8 7 7 7 7 7 7 5 5 5 4 5 5 5 5 5 5 5 5 4 4 3 3 3 3 4 5 5 5 5 6 6 7 7 9 12 10 12 18 20 23 24 24 23 26 28 26 20
4 3 5 3 3 3 3 2 1 2 2 2 5 5 3 4 4 5 5 4 3 3 3 2 2 6 8 9 14 13 9 8 10 9 8 7 8 8 7 5 7 8 7 6 6 6 5 5 5 5 5 5 5 4 4 4 4 3 3 3 3 3 3 4 5 5 4 5 6 6 6 6 7 8 9 13 15 11 12 15 19 23 25 25 25 24 26
1 4 2 3 3 3 2 1 2 3 1 2 2 3 4 1 1 2 4 4 2 4 5 5 3 5 11 10 12 14 14 9 8 9 8 9 8 7 7 7 7 6 6 5 5 5 5 5 5 4 4 3 4 3 3 3 2 2 2 2 3 4 4 4 4 5 5 5 5 6 6 7 7 7 8 10 12 16 16 13 16 19 23 24 25 24 24
1 4 4 3 3 2 1 2 3 3 2 1 2 2 4 5 3 1 1 3 2 1 1 4 5 5 10 11 11 11 10 9 9 9 8 7 6 6 6 6 6 5 6 5 5 5 5 6 5 4 4 2 3 2 2 2 2 2 2 3 4 4 3 4 4 4 4 4 5 5 5 6 7 8 9 9 11 12 15 18 19 16 12 12 15 20 23
2 3 3 2 1 2 3 2 2 5 3 2 2 3 5 4 4 3 4 4 4 3 2 2 4 5 5 7 10 8 12 10 8 7 6 7 7 7 6 5 6 6 6 6 5 6 6 5 4 3 3 1 2 1 1 2 2 1 3 3 3 5 7 5 3 4 4 5 5 6 6 7 7 8 9 10 11 11 12 14 15 17 18 16 15 18 18
2 4 2 2 4 3 2 3 3 2 2 1 0 1 2 2 2 1 1 1 1 2 2 2 6 9 10 7 12 11 8 9 8 7 8 8 7 6 6 7 7 7 6 5 6 6 5 4 3 3 1 1 2 1 2 1 1 2 2 2 3 2 2 3 3 4 4 4 5 6 7 7 8 9 10 10 11 11 12 13 14 15 17 15 15 20 26
2 5 3 3 2 1 1 0 1 2 3 2 2 2 2 1 2 2 3 3 3 3 3 2 0 2 8 8 10 11 7 8 8 9 8 8 8 8 7 7 7 6 5 6 5 5 4 4 3 3 2 2 3 1 0 1 2 2 1 1 2 2 2 2 3 4 4 5 6 7 8 9 9 9 9 9 10 11 12 12 14 14 15 16 17 17 17
2 3 4 3 2 1 2 5 4 2 3 3 3 2 2 2 4 5 3 2 2 5 3 3 5 6 6 8 9 14 19 17 11 8 8 8 8 7 7 7 7 5 5 5 5 5 5 4 4 4 2 3 4 0 1 2 2 2 2 3 3 2 2 3 4 5 5 5 6 9 8 7 8 8 9 9 10 11 12 13 14 14 15 16 16 15 16
2 1 2 1 1 1 3 6 3 1 3 3 4 3 3 2 3 5 7 7 3 5 5 8 9 7 8 11 8 5 4 5 5 7 8 8 7 7 8 8 8 8 7 7 7 6 6 5 4 4 3 4 1 1 1 1 1 1 2 2 2 5 6 7 6 5 4 5 6 6 7 7 7 8 9 10 10 10 11 11 12 13 13 14 14 15 15
3 1 2 2 1 1 4 3 6 7 8 4 3 5 10 8 11 14 12 9 12 12 9 9 11 14 11 7 7 7 7 7 7 6 6 6 6 5 5 4 2 3 5 6 6 6 6 5 5 3 3 2 1 1 1 1 1 1 1 2 2 2 3 5 4 4 5 5 6 6 7 6 7 7 8 9 9 11 11 11 12 13 13 14 15 14 14
2 3 4 4 5 5 8 7 7 9 8 8 12 13 11 9 10 10 9 7 4 6 10 14 12 7 9 10 10 9 9 8 7 4 5 6 5 5 4 3 3 3 4 4 5 5 6 5 4 4 3 2 2 3 3 3 2 2 2 1 1 2 4 4 5 4 5 5 5 5 5 6 7 8 8 9 10 11 11 12 13 14 14 14 14 14 14
7 9 10 9 8 9 11 12 9 9 9 10 9 9 8 7 9 10 9 5 7 9 11 13 12 11 10 12 11 10 11 10 8 9 10 8 7 6 5 5 4 4 3 3 4 4 4 4 4 2 2 2 2 2 2 2 2 2 2 2 2 2 3 3 3 2 3 5 5 5 5 6 7 7 8 9 10 10 11 12 12 13 14 14 14 14 17
11 12 13 13 12 12 11 12 10 8 8 10 9 10 11 10 8 11 12 8 10 15 12 6 9 11 11 11 12 15 15 17 15 14 11 7 8 7 7 6 5 4 3 3 4 4 3 4 3 2 1 3 3 2 2 2 2 2 2 2 3 3 3 3 2 3 4 4 4 4 5 5 6 8 9 9 9 9 10 11 11 12 13 14 15 15 16
7 8 9 10 11 11 11 11 11 11 10 10 11 11 11 12 12 10 10 13 13 5 7 11 11 12 13 15 14 16 18 13 8 11 9 8 8 8 7 7 7 6 5 4 5 3 3 2 4 5 2 3 3 3 2 1 2 2 2 2 2 3 3 3 3 3 4 3 3 4 4 7 8 9 8 8 8 8 9 10 10 11 11 12 13 15 15
7 10 10 10 10 10 11 11 11 11 11 11 11 11 11 10 11 13 11 6 5 9 10 11 12 13 17 23 18 8 4 6 6 9 8 9 8 8 8 7 6 7 7 6 6 8 4 2 6 6 4 2 2 2 2 3 2 2 2 2 2 2 2 2 2 3 3 3 3 4 7 7 6 6 7 6 7 7 8 9 10 11 11 11 12 13 14
9 9 10 11 11 11 11 12 11 9 9 12 11 10 10 10 10 10 10 9 7 8 10 14 17 17 10 6 5 10 12 8 7 10 11 10 9 10 8 8 8 7 6 5 7 7 4 5 7 5 3 2 2 2 2 3 4 3 2 2 1 1 2 2 3 4 4 3 5 4 5 5 6 6 6 6 6 7 8 9 9 9 10 10 10 11 12
7 5 5 6 6 8 10 11 9 6 6 11 13 12 8 6 5 5 7 10 8 8 11 12 8 9 12 14 13 11 11 10 10 12 14 10 8 9 7 6 6 4 2 5 8 6 6 6 5 4 3 3 2 2 3 4 4 2 2 2 2 2 2 3 2 4 5 5 4 4 5 6 6 6 7 6 7 8 9 9 9 9 9 9 10 10 11
4 4 4 4 6 7 7 9 10 10 7 5 6 12 8 2 4 6 7 6 7 10 12 12 13 15 15 15 15 15 13 11 12 13 13 10 8 6 3 2 2 2 5 6 4 4 7 9 5 3 2 3 2 2 3 3 3 2 2 1 1 1 2 3 3 3 4 4 5 6 5 5 5 7 7 7 7 7 7 7 8 8 9 9 9 9 10
3 3 4 4 6 5 6 7 10 9 6 6 6 7 5 4 4 5 10 12 8 9 12 15 16 16 17 19 17 12 11 10 11 12 12 9 8 7 6 6 6 7 4 4 3 4 6 5 4 2 2 2 2 2 1 2 1 1 1 1 1 1 2 2 3 4 4 4 5 4 4 4 5 7 7 6 6 6 6 7 7 8 7 8 8 8 8
4 3 4 6 7 7 7 6 6 10 10 5 4 4 4 3 6 11 7 3 6 9 11 12 14 15 10 8 10 11 9 8 9 9 9 8 9 8 8 3 6 6 7 7 5 5 4 3 3 3 2 1 2 4 2 2 1 1 1 1 1 2 2 3 4 4 4 4 4 4 5 5 5 5 6 7 7 6 6 6 6 6 7 7 8 8 8
5 6 6 6 7 6 5 7 7 9 11 7 2 3 2 3 5 3 2 7 9 10 10 10 9 9 11 12 12 12 10 8 8 8 6 5 3 4 2 3 6 6 10 6 5 4 4 3 4 3 5 4 2 2 2 1 1 1 1 1 2 2 3 3 3 4 4 4 4 4 4 4 5 5 6 6 6 6 6 6 6 6 7 7 7 7 7
7 6 6 6 7 5 5 5 7 6 8 8 1 1 1 2 3 5 6 8 10 11 13 13 12 11 10 11 11 9 10 10 9 8 7 5 5 5 5 2 6 7 10 5 5 4 4 3 3 4 6 5 4 3 2 1 1 1 1 2 2 2 2 3 4 4 4 4 3 4 4 5 5 5 5 6 6 7 6 6 5 6 7 7 7 7 7
7 6 6 6 6 5 4 4 6 8 5 2 1 1 0 0 1 2 5 8 10 9 9 10 12 10 9 9 8 5 5 7 8 10 10 9 8 7 7 4 5 5 5 5 3 3 3 3 4 6 4 4 3 2 1 2 2 1 1 2 2 2 3 3 4 4 4 4 4 4 6 4 4 5 5 6 7 7 7 6 6 6 6 6 6 7 7
6 4 4 5 5 5 4 3 2 1 0 1 1 1 0 1 1 2 3 6 7 5 3 3 4 5 6 7 6 7 7 5 5 2 3 2 2 4 9 7 5 5 7 7 2 3 3 6 6 5 4 3 2 1 1 1 1 1 1 2 3 4 4 4 4 4 4 4 4 4 4 3 4 4 6 6 6 7 7 8 7 6 5 6 6 6 6
6 5 4 4 4 2 2 0 1 1 2 2 5 4 1 2 2 2 3 4 4 4 4 5 5 4 4 5 6 8 8 6 3 1 1 1 3 5 9 9 7 8 6 4 3 3 3 4 5 5 4 3 2 1 1 2 2 2 2 3 3 4 4 4 4 4 4 4 6 6 6 6 5 6 7 7 7 6 6 6 6 6 6 7 6 7 7
6 6 6 5 5 4 1 1 2 4 6 8 5 0 2 2 2 2 3 4 5 5 5 4 5 5 5 4 3 3 1 6 8 5 5 3 3 5 6 5 5 6 5 4 4 4 5 5 4 3 3 3 2 2 2 2 2 3 3 4 4 4 4 4 4 3 3 4 4 3 3 3 4 5 5 6 6 5 5 5 6 6 6 5 6 6 7
4 5 5 3 1 2 2 2 3 3 4 2 1 1 2 4 4 4 4 5 7 6 5 5 7 5 4 3 4 3 3 4 2 2 5 5 5 4 5 5 7 6 4 3 3 3 5 5 4 4 3 3 2 3 3 2 3 4 4 3 3 3 4 4 3 3 3 3 3 3 4 5 5 5 6 6 6 5 6 5 5 5 5 6 7 8 7
3 2 2 2 2 2 2 3 3 4 2 1 2 2 3 3 3 4 4 5 5 4 5 5 4 5 4 3 3 3 3 4 3 3 4 4 5 4 4 3 3 4 3 3 3 3 5 6 5 4 3 2 2 2 2 2 2 3 3 4 3 3 4 5 5 7 5 5 4 4 4 5 5 6 7 5 5 5 5 5 5 7 11 9 7 7 6
3 2 3 2 2 2 3 3 4 4 1 2 3 4 3 3 3 3 4 5 5 6 6 5 4 4 4 3 3 3 2 2 2 2 3 3 3 3 3 3 3 3 3 3 3 3 2 2 2 3 3 3 2 2 2 2 2 3 3 3 3 3 3 5 5 3 3 4 3 4 5 5 5 5 5 5 5 5 5 6 6 5 4 5 5 5 6
2 2 2 2 1 2 1 3 4 3 3 3 3 3 3 2 4 4 3 3 3 4 5 6 5 3 3 4 3 3 2 1 1 2 2 2 2 2 2 3 2 3 3 3 2 2 2 2 2 3 3 1 1 2 3 4 3 3 3 4 4 4 5 5 5 4 3 4 4 4 5 5 5 5 6 5 5 5 5 5 5 5 5 4 5 5 6
Wind_Direction
227 69 143 163 181 201 206 210 186 174 179 182 187 215 232 212 210 232 236 215 228 243 223 191 189 185 189 190 190 188 181 159 148 149 159 172 176 176 179 175 172 166 160 157 151 144 137 133 125 116 110 101 98 95 90 84 77 58 46 55 58 61 61 61 58 55 54 40 27 17 15 5 5 359 353 346 334 322 320 313 308 305 300 301 300 294 287
218 117 123 196 197 196 207 197 188 187 177 186 197 215 221 218 222 229 243 177 225 237 234 218 190 185 196 196 177 152 155 168 164 165 168 179 184 181 180 177 175 169 162 154 149 142 140 137 131 128 121 115 104 103 90 73 67 50 42 59 68 83 75 60 52 52 50 40 24 14 18 8 360 353 342 341 330 320 313 306 303 300 297 288 283 282 289
217 99 94 63 270 211 207 186 184 177 183 196 205 216 226 225 236 242 252 280 271 248 227 231 106 123 122 141 166 183 186 170 168 176 185 189 187 183 181 176 172 167 154 146 140 142 140 132 131 122 118 114 105 90 80 74 70 57 47 97 106 70 64 53 47 42 43 27 10 15 7 357 351 338 335 328 316 313 311 304 297 297 288 286 288 292 291
213 133 144 146 83 35 356 141 168 180 175 200 207 219 220 215 223 235 241 251 253 250 166 131 105 121 148 168 179 185 191 186 181 189 191 188 187 182 181 173 165 153 151 149 150 146 138 132 128 126 115 102 91 85 83 77 74 47 75 79 88 78 56 47 41 33 29 12 6 0 359 347 331 324 307 302 297 303 301 298 304 294 290 295 297 293 287
207 35 135 125 113 90 261 229 203 196 199 202 208 215 221 213 213 226 226 235 241 210 151 157 153 171 181 187 188 194 197 193 188 192 192 193 188 180 175 166 159 158 156 155 149 139 135 136 126 105 99 99 96 94 90 94 105 178 138 142 118 88 67 54 43 33 22 8 359 350 342 332 315 315 313 313 315 322 318 312 304 305 307 305 300 299 298
160 357 122 150 125 221 226 218 209 188 199 202 200 204 212 215 208 221 222 238 244 154 176 191 195 186 190 195 199 195 190 191 190 195 196 194 184 170 157 151 156 157 146 140 137 134 128 119 102 98 93 91 98 94 101 137 182 186 172 149 92 64 57 46 32 25 12 357 354 347 338 327 323 323 324 322 326 315 309 314 314 312 308 304 301 305 306
165 174 159 153 220 232 229 17 150 201 212 198 205 221 219 219 217 227 244 246 241 194 201 204 208 198 191 198 196 202 207 199 183 186 189 188 172 158 153 157 161 153 143 135 132 127 126 120 113 114 110 109 114 125 149 170 195 189 158 109 65 48 42 39 21 9 5 354 350 340 335 334 325 313 314 313 321 313 309 310 309 311 309 312 305 301 301
82 159 171 219 229 226 69 109 70 1 192 206 210 239 235 225 217 215 227 236 235 228 203 197 57 63 51 66 244 232 206 181 179 184 192 166 155 159 167 159 152 145 145 145 141 133 119 117 119 121 118 120 135 141 167 187 174 152 124 101 77 42 39 28 12 356 353 338 335 329 323 317 308 310 310 312 319 314 307 303 298 291 294 290 297 300 298
196 173 197 221 17 328 162 222 203 178 189 180 192 227 236 215 217 212 226 235 239 231 188 128 83 74 68 291 256 213 184 175 192 198 198 147 156 144 124 132 133 132 131 130 123 118 121 123 123 114 111 132 161 170 177 177 168 135 115 94 58 39 31 20 354 344 340 330 321 316 318 319 329 327 326 322 308 308 308 298 291 298 301 300 297 298 302
204 191 213 220 233 251 233 219 113 180 154 167 183 213 262 236 211 214 216 228 230 227 114 128 105 95 133 249 246 194 166 193 190 112 140 144 139 127 120 115 116 119 115 110 113 122 120 115 107 106 130 173 181 175 166 162 149 122 99 75 44 24 19 5 356 352 350 345 332 333 341 335 321 314 310 298 301 316 310 314 312 306 299 301 305 299 300
176 212 217 205 217 234 306 150 157 166 166 161 128 186 256 245 211 202 205 223 233 219 170 152 134 143 211 235 237 166 179 186 155 127 104 103 105 111 121 130 127 123 122 122 121 119 119 115 117 130 165 189 178 161 151 137 123 110 83 59 27 14 3 1 4 9 360 358 354 348 333 328 330 323 321 314 309 313 313 307 301 300 307 309 310 307 304
197 196 212 227 198 251 170 161 152 164 146 122 123 208 244 263 170 190 210 219 226 201 189 160 176 189 222 233 252 121 141 124 123 134 133 126 121 115 113 109 115 117 117 118 122 123 124 121 125 162 187 171 157 141 126 112 106 89 60 30 4 1 360 5 15 10 8 8 5 355 340 333 331 320 312 312 323 324 317 308 306 312 315 311 308 304 305
212 206 235 258 253 194 142 151 129 136 152 144 174 212 226 153 161 186 198 199 207 202 187 169 187 214 227 17 93 109 114 111 105 99 104 110 117 123 123 119 116 118 123 123 123 122 117 119 136 173 183 160 135 115 112 104 87 59 27 17 11 12 6 10 14 13 9 5 351 343 337 324 314 314 315 319 318 319 314 308 310 308 307 306 302 300 300
213 210 219 229 270 207 135 37 139 150 139 201 211 187 332 342 18 359 166 196 212 195 186 183 209 127 83 112 97 113 119 118 122 115 113 110 101 97 105 120 126 121 118 114 112 108 108 112 117 114 142 128 115 115 104 86 63 23 20 19 16 12 14 14 11 4 359 352 347 332 325 319 318 309 308 307 307 311 305 304 306 304 303 304 299 297 299
231 217 229 225 241 177 114 112 77 311 197 242 119 118 7 41 10 118 15 141 162 145 182 198 177 103 107 119 128 112 119 126 131 132 132 130 131 132 133 128 125 126 126 128 127 124 119 110 80 61 97 111 111 107 91 65 36 26 23 20 14 14 12 9 6 356 352 347 333 326 319 317 318 313 312 315 314 308 297 300 303 301 301 300 300 298 299
187 189 198 211 202 91 181 149 188 188 220 51 146 161 110 278 61 67 25 264 204 197 184 175 144 129 122 121 125 123 111 117 119 120 118 117 118 120 116 122 132 128 123 124 123 118 109 94 76 55 79 104 105 96 73 45 32 29 26 19 15 14 12 5 357 351 340 330 324 319 319 321 317 312 314 316 311 304 304 301 294 300 296 302 300 298 302
206 204 219 161 336 175 215 22 16 179 151 72 65 51 62 114 138 134 54 262 202 210 199 148 148 133 164 140 148 135 143 136 139 137 140 137 132 125 121 114 117 122 129 130 124 114 102 92 78 64 58 97 99 84 63 47 35 31 23 18 15 13 6 357 345 334 326 322 316 311 324 321 314 313 313 318 311 305 305 297 294 292 294 299 300 299 301
271 301 195 86 102 236 278 99 59 13 75 89 61 48 87 115 125 168 187 294 184 180 172 148 164 156 140 134 134 127 133 133 125 123 117 108 105 106 105 110 111 117 117 119 122 117 101 84 74 66 57 70 81 73 63 50 38 36 23 14 13 6 354 339 328 320 318 311 308 320 312 308 305 302 304 306 300 299 295 289 287 290 294 300 297 298 293
167 234 216 186 172 220 242 248 110 142 16 304 3 4 326 31 51 8 15 19 60 160 197 180 155 135 142 133 133 131 133 136 137 135 129 127 133 135 132 127 126 126 128 126 126 120 109 90 77 70 70 70 72 70 58 53 46 33 20 19 14 358 343 325 318 311 312 315 321 317 312 308 300 290 286 289 292 291 291 294 296 293 293 292 292 291 291
206 256 68 37 57 28 61 8 264 262 227 212 212 35 36 40 46 41 68 93 116 142 187 178 143 142 151 146 149 151 150 146 144 141 139 138 126 112 112 124 117 106 112 121 122 118 107 96 83 84 84 81 76 71 66 53 35 28 28 25 5 339 327 318 315 313 312 319 319 315 308 299 294 295 287 284 282 282 289 296 298 295 291 287 285 290 296
262 287 236 138 156 162 213 198 234 241 260 339 81 67 52 29 127 166 162 227 230 190 193 170 152 150 171 157 154 149 148 147 151 150 139 133 129 127 126 121 118 120 122 113 114 112 110 105 109 107 105 101 81 64 48 39 29 37 25 9 347 325 322 319 312 318 321 317 314 309 306 301 290 284 295 293 286 282 270 262 257 268 281 281 281 285 285
223 233 229 126 249 263 141 104 327 306 341 48 69 110 205 217 221 179 173 336 351 360 3 168 163 162 162 152 150 151 155 157 145 138 132 130 128 123 114 107 104 100 103 116 124 123 118 119 122 120 113 99 75 58 53 40 33 33 14 352 333 333 321 315 313 323 319 312 304 303 304 306 304 295 268 264 269 276 288 277 262 266 273 274 280 289 288
239 65 21 355 1 59 98 95 0 339 348 151 234 229 224 210 210 184 170 173 164 204 236 223 176 173 156 154 138 130 137 135 128 127 131 134 136 135 134 125 121 116 118 118 119 121 123 124 124 116 100 77 65 50 47 33 35 27 3 348 338 323 319 317 321 315 308 306 309 305 298 297 299 303 309 298 272 269 272 281 285 281 277 278 281 280 278
87 115 78 46 50 20 57 70 47 308 287 235 248 244 195 189 181 180 193 205 198 185 180 207 222 161 127 134 148 141 108 115 122 127 128 125 127 132 136 133 133 129 130 130 129 127 122 121 120 112 93 69 66 49 42 37 27 22 358 350 323 309 307 305 303 302 300 298 297 298 302 305 305 308 308 308 306 284 260 265 283 289 289 287 283 279 278
338 107 68 64 52 78 67 355 279 272 271 249 280 346 23 338 180 184 211 217 237 192 178 181 156 145 151 152 151 141 137 132 126 127 124 127 131 135 134 129 137 137 134 131 125 127 125 126 116 100 90 78 75 59 46 39 21 19 1 326 296 288 287 288 298 303 301 301 303 302 304 307 309 304 303 305 304 312 311 294 281 277 282 285 290 292 291
1 98 92 88 77 75 168 279 248 257 309 315 287 352 52 39 29 170 298 348 356 41 224 156 148 129 148 149 136 122 114 125 128 127 135 141 136 130 141 145 138 126 127 125 129 129 130 125 115 104 104 91 85 67 53 42 23 15 317 285 274 271 283 304 303 300 302 302 303 302 299 301 299 300 297 296 298 300 305 313 318 312 287 277 290 297 299
81 85 100 37 292 192 170 270 354 52 22 15 349 39 48 46 46 53 49 35 19 5 29 74 95 111 117 133 127 118 134 128 128 143 141 139 148 150 142 133 133 131 125 128 130 143 139 130 115 115 118 118 112 87 57 43 18 294 262 263 271 275 281 287 296 297 301 300 299 299 303 301 301 301 297 297 298 295 296 301 305 305 311 312 310 310 309
107 115 152 253 296 1 89 47 37 90 95 53 194 88 79 85 90 112 133 97 65 45 39 50 140 145 144 150 145 126 109 140 156 150 144 154 141 125 131 134 132 133 136 137 144 140 127 126 121 129 165 175 126 100 60 43 266 253 259 268 273 281 290 296 292 288 293 295 299 300 300 299 299 295 296 296 295 295 295 295 293 298 301 303 307 310 309
174 133 177 236 345 80 81 264 178 165 127 94 64 85 117 196 237 225 239 197 155 139 159 150 126 199 159 145 153 146 143 155 157 163 157 140 131 141 142 140 135 134 135 145 144 138 135 138 145 160 199 156 115 83 78 248 244 250 262 271 278 280 291 300 302 293 293 291 288 292 295 296 294 291 291 290 292 295 299 298 298 298 297 302 309 310 312
266 129 173 183 142 142 275 268 250 168 141 154 167 197 205 190 229 239 236 150 153 211 202 136 152 177 166 166 183 175 175 176 153 129 125 136 143 144 144 137 122 121 138 161 164 150 146 163 170 179 191 130 112 168 216 243 250 229 231 250 255 263 274 283 289 287 288 287 295 297 294 288 288 293 296 298 299 299 299 299 301 302 303 304 305 305 310
134 83 73 41 92 154 218 259 286 215 178 170 195 204 213 215 256 264 231 195 177 217 191 189 191 174 182 187 175 154 92 101 114 129 136 144 147 152 152 160 157 169 181 174 162 156 163 174 178 186 147 110 144 190 217 252 261 265 245 235 239 258 267 281 283 282 285 293 296 295 290 289 296 300 301 302 301 298 297 298 297 296 297 299 302 304 306
125 99 61 300 313 292 268 237 244 237 228 187 170 221 211 198 219 231 234 216 216 206 188 179 194 199 188 146 139 133 126 108 106 116 133 137 149 152 152 161 77 52 101 122 142 160 167 178 182 178 114 132 176 212 233 238 258 251 253 259 269 273 276 294 287 287 294 292 290 287 289 300 305 305 302 300 300 301 302 302 301 301 301 302 303 304 306
160 260 281 265 265 257 260 249 236 251 239 218 221 229 229 218 228 237 241 228 202 182 193 208 203 174 160 148 137 145 138 113 93 116 143 157 146 137 132 123 114 116 120 146 153 165 173 178 182 149 143 188 197 217 215 219 244 240 241 265 273 280 287 287 280 292 288 287 283 288 300 305 301 300 297 298 299 302 304 303 304 304 304 304 304 304 305
209 232 249 248 229 242 251 256 237 234 246 236 237 239 235 228 225 233 236 212 204 206 210 210 191 173 157 158 162 151 143 133 154 191 187 157 143 137 138 139 141 142 147 140 157 177 184 181 166 150 159 179 211 220 213 221 232 244 248 261 275 281 284 278 293 289 289 284 284 294 297 294 297 297 299 300 302 303 305 306 306 307 306 305 306 307 308
234 245 250 255 255 251 250 253 256 244 233 243 242 235 233 230 221 225 223 207 207 215 210 165 157 159 156 152 166 176 182 190 193 162 145 149 150 147 146 139 127 133 161 197 191 199 160 130 113 135 188 223 221 213 206 218 247 251 254 252 254 263 266 289 290 285 282 285 296 299 305 302 297 298 295 296 299 302 304 305 305 306 309 311 310 311 311
235 245 252 258 258 258 256 255 254 252 245 238 240 240 230 224 221 222 213 217 222 182 142 162 153 151 166 176 172 186 200 202 163 146 139 143 141 139 145 149 155 155 170 197 212 169 120 135 173 186 200 206 201 187 186 214 240 239 247 252 258 259 277 279 279 280 278 285 300 304 299 296 296 295 296 300 301 302 302 303 305 310 311 310 311 314 315
229 231 240 247 252 253 255 255 255 254 252 246 244 243 240 229 220 223 222 221 184 178 165 153 156 170 194 203 197 182 92 152 125 149 148 141 144 145 150 151 162 164 164 184 200 145 152 177 184 194 208 203 194 186 212 233 224 237 251 246 247 260 274 283 285 284 288 297 306 300 300 298 294 292 294 294 300 305 307 304 309 312 313 313 318 319 319
236 227 236 241 246 251 254 255 257 264 268 271 262 248 239 235 223 216 213 205 192 176 167 171 184 194 184 143 164 188 189 183 157 152 133 146 150 142 156 164 173 168 180 195 146 135 166 173 184 195 202 203 188 188 230 240 245 251 241 238 258 270 272 279 285 290 295 297 297 297 295 295 294 299 299 301 299 303 304 306 310 312 313 316 318 320 322
253 257 267 280 290 284 277 282 289 290 271 265 270 272 260 245 231 191 203 208 195 163 166 182 165 158 175 179 186 184 191 182 163 151 144 144 153 157 169 173 165 156 103 91 122 145 153 162 180 184 197 184 180 205 226 231 242 250 241 245 251 258 273 281 285 292 291 293 290 289 293 289 291 293 300 302 304 305 304 306 311 311 314 314 319 324 327
304 312 305 308 281 273 280 279 279 277 276 271 278 275 284 210 208 202 210 202 191 174 175 165 169 177 186 191 191 193 186 168 157 147 147 146 142 150 142 215 232 98 102 119 133 147 156 168 174 189 188 174 191 200 203 208 254 241 234 234 248 266 274 279 280 281 282 285 287 291 288 288 293 298 296 298 301 301 306 311 311 311 313 318 322 323 325
320 324 316 313 289 291 279 278 278 280 290 288 279 280 303 242 208 198 213 211 191 175 183 182 184 194 194 195 191 153 124 132 147 156 152 131 144 178 180 191 166 138 150 152 161 148 159 171 184 182 183 175 184 199 194 238 247 240 240 241 256 263 274 274 278 279 280 284 287 287 288 293 296 295 294 296 295 296 298 305 311 314 315 316 317 321 325
292 290 285 277 271 270 269 271 286 290 279 258 277 302 300 254 210 225 226 168 166 183 189 200 201 197 171 117 116 124 145 149 152 162 175 175 165 166 174 172 125 138 154 152 164 161 168 170 186 180 184 179 195 190 220 267 256 249 252 254 256 257 258 266 269 269 272 275 275 279 282 289 289 292 292 293 294 296 300 305 307 308 311 313 317 322 325
336 314 300 289 285 284 283 281 273 273 285 293 341 315 287 253 230 230 152 170 173 170 177 178 175 154 147 152 143 146 157 151 149 156 178 252 312 1 334 118 127 138 156 157 165 169 175 172 174 175 175 178 190 193 261 263 245 238 249 253 261 255 263 260 263 268 274 271 273 273 279 280 280 286 290 290 290 293 299 303 305 308 309 310 311 317 325
314 304 291 291 288 289 290 281 277 285 278 290 5 9 337 232 224 198 187 177 179 179 172 175 163 156 157 153 154 157 164 166 159 163 163 197 264 234 227 160 132 142 154 163 166 177 173 172 171 160 167 190 201 222 231 241 243 249 252 259 262 267 262 263 261 260 257 265 266 272 271 273 278 281 285 289 294 296 296 295 297 300 305 304 308 313 316
306 305 303 288 290 295 278 262 264 264 279 339 16 14 12 189 192 181 182 183 181 182 182 177 163 163 165 174 176 174 140 147 156 156 155 175 186 204 161 156 129 135 164 166 168 169 170 169 159 163 181 185 191 207 221 221 232 235 246 253 256 254 255 255 255 255 256 257 262 265 264 269 273 280 280 281 283 286 289 292 293 295 299 304 307 314 319
297 299 294 293 283 271 276 281 304 350 41 201 23 353 38 64 118 94 144 167 173 171 124 118 114 157 162 158 131 98 110 132 156 178 354 345 194 137 129 146 143 138 151 165 174 173 171 159 165 182 188 187 188 196 216 214 216 227 242 244 247 243 247 247 250 253 257 259 262 262 266 271 277 275 277 277 280 280 283 287 291 294 296 297 301 299 302
291 289 283 268 272 283 292 320 235 161 193 190 221 238 145 115 133 150 125 134 136 134 119 115 126 127 134 119 133 144 150 148 169 197 90 74 80 89 109 116 118 136 153 171 177 178 165 165 174 167 164 170 187 214 209 203 200 217 229 236 237 244 247 249 251 250 254 257 260 265 269 272 269 272 274 276 276 279 284 291 292 293 297 300 301 303 304
299 288 284 269 257 259 215 192 186 220 211 224 239 141 126 126 116 106 108 115 110 97 93 95 95 100 111 101 47 19 82 151 148 185 166 159 123 109 128 145 137 146 153 176 188 206 188 184 175 181 180 179 199 204 199 199 203 215 226 230 235 238 243 247 248 249 254 259 262 261 264 266 268 269 270 269 271 274 280 287 292 301 300 302 304 305 302
294 301 307 323 316 261 238 238 238 242 245 224 110 126 123 106 104 99 113 113 112 114 106 89 91 90 83 57 49 54 38 8 3 168 134 152 148 133 113 118 129 151 172 175 169 174 171 178 178 179 176 198 204 200 194 196 206 221 223 233 236 239 243 244 247 251 257 258 263 267 270 268 268 266 269 273 276 277 282 284 288 291 302 304 304 301 304
316 314 303 294 276 266 257 260 265 257 267 124 144 119 132 155 145 164 155 154 152 123 120 120 120 124 124 119 86 57 26 33 51 64 79 92 91 98 110 117 134 159 165 170 160 175 168 174 173 175 187 194 194 195 194 210 213 221 231 235 237 245 244 249 259 261 258 260 260 265 266 266 266 269 272 273 273 275 279 280 283 286 290 292 293 298 304
325 316 304 313 318 328 346 355 342 345 41 90 98 121 152 178 171 142 146 147 144 140 133 112 99 102 104 109 107 82 70 76 48 55 98 108 105 115 123 142 155 165 167 175 179 175 158 163 164 173 179 194 191 198 206 211 220 234 233 241 238 246 252 252 245 245 243 250 263 267 269 270 268 268 266 266 270 273 276 282 285 286 287 286 292 296 298
323 332 355 3 5 359 357 1 1 29 48 75 124 149 173 150 122 134 121 122 153 135 133 134 128 135 131 133 121 109 104 93 81 77 82 98 114 130 141 152 161 173 180 186 182 181 187 180 180 189 193 192 198 214 223 230 235 241 243 242 241 242 245 250 253 255 256 256 254 261 263 264 265 265 266 266 267 269 275 275 278 280 282 283 289 294 296